User: anonymous   Login
Location: Hradec Kralove
(50.2170°N, 15.8330°E)
Time: 00:08:00
(UTC+01:00)
Language:

Hubble Space Telescope - Orbit

View from above orbital plane
View from above orbital plane
View from above satellite
View from above satellite

Ground track
Ground track

The orbit data is extracted from the following two-line orbital elements,

1 20580U 90037B   20303.92059720 +.00000593 +00000-0 +25085-4 0  9997
2 20580 028.4686 150.2455 0002835 099.3689 029.9577 15.09460665476294
Epoch (UTC): 29 October 2020 22:05:39
Eccentricity: 0.0002835
inclination: 28.4686°
perigee height: 536 km
apogee height: 540 km
right ascension of ascending node: 150.2455°
argument of perigee: 99.3689°
revolutions per day: 15.09460665
mean anomaly at epoch: 29.9577°
orbit number at epoch: 47629

The dashed part of the orbit path shows where the satellite is in the earth's shadow,  

DLR